Temp_Advection
nan nan nan nan nan nan nan nan nan nan nan nan nan nan nan nan nan nan nan nan nan nan nan nan nan nan nan nan nan nan nan nan
nan 1 1 2 1 -0 -0 -0 0 1 1 1 1 0 -0 0 0 0 0 0 0 -0 -0 0 -0 -0 0 0 -0 -0 0 nan
nan 2 2 1 -0 -0 -1 -0 1 0 1 1 0 -0 0 0 0 0 0 0 0 0 0 0 0 0 0 -0 -0 -0 -0 nan
nan 1 0 0 0 -1 -1 1 1 1 0 -0 -0 -0 0 0 0 0 0 0 0 -0 -0 0 0 0 -0 -0 0 0 -1 nan
nan 1 0 -1 -1 -1 1 1 -0 -0 -2 -0 -2 -1 0 -0 -0 0 -0 -0 0 -0 0 0 0 0 0 0 0 0 -0 nan
nan 1 0 0 -1 0 1 0 -0 -1 -1 -1 -1 0 -0 -0 0 -0 -0 0 -0 0 0 0 -0 0 0 0 0 0 -0 nan
nan 1 1 1 2 1 1 -1 -0 -0 0 0 -0 1 1 -0 -0 -0 -0 0 0 0 1 0 0 0 0 0 -0 -0 0 nan
nan 1 1 1 0 -0 -1 -2 1 0 0 1 1 1 0 -1 -0 -0 0 0 0 0 1 0 0 0 0 0 -0 0 0 nan
nan -1 1 1 -0 1 -2 -1 1 -0 -1 1 -0 2 1 -1 -0 0 -0 -0 0 1 0 -0 0 0 0 -0 -0 0 0 nan
nan -2 0 1 1 -0 -3 -1 -1 -2 1 2 1 1 -2 -2 -1 0 0 0 1 1 0 0 0 0 0 0 0 0 0 nan
nan -2 -1 0 -0 -1 -1 0 -0 1 3 0 0 -0 -0 -0 -0 0 0 0 1 1 0 0 0 0 0 0 0 0 0 nan
nan -4 -1 2 2 2 2 -0 1 2 2 -0 2 2 2 -0 -0 0 0 1 1 0 0 0 0 0 0 -0 -0 0 1 nan
nan -1 3 3 2 1 -1 -1 0 1 -0 1 2 1 1 -0 -0 -0 0 1 0 1 0 -0 0 0 -0 -0 0 0 0 nan
nan 0 1 -0 0 -0 -1 0 0 1 1 2 1 1 -0 -1 -1 -1 0 0 0 1 -0 0 0 -0 0 0 0 0 0 nan
nan 0 0 -0 0 -0 -0 0 0 0 2 1 0 -0 -1 -0 -2 -1 0 0 0 -0 -0 0 0 0 0 0 0 0 0 nan
nan -1 -0 -0 -0 -0 0 -0 -1 0 1 -0 0 1 1 -0 -1 -1 0 0 -0 -0 0 0 0 0 -0 0 0 0 0 nan
nan -1 1 0 0 0 0 -1 0 0 1 0 1 0 -1 -1 -1 -0 0 0 -0 -0 -0 0 0 -0 -0 0 0 1 1 nan
nan -1 0 0 0 0 -0 0 0 0 0 -0 0 -0 -1 -1 -0 0 1 0 -0 -0 0 0 0 -0 0 1 1 1 0 nan
nan nan nan nan nan nan nan nan nan nan nan nan nan nan nan nan nan nan nan nan nan nan nan nan nan nan nan nan nan nan nan nan
Wind_Speed
34 37 37 35 46 48 47 45 42 39 37 36 36 36 35 34 33 30 27 25 24 28 31 28 26 24 19 17 14 16 14 18
28 39 42 40 43 49 46 45 42 40 39 38 39 40 38 37 35 30 29 27 25 29 29 29 25 25 20 19 17 19 21 21
26 33 37 42 43 45 45 48 45 43 38 38 39 39 40 38 36 31 30 29 28 30 30 29 26 27 24 22 18 23 23 24
26 30 35 42 45 44 43 48 48 44 40 36 37 39 40 41 39 35 34 32 30 30 30 32 29 27 26 23 21 22 28 28
27 32 38 42 47 44 40 48 48 39 29 34 41 45 47 47 42 39 35 32 32 32 31 35 31 29 27 24 23 22 25 28
28 34 37 43 49 47 44 39 41 42 30 29 47 47 49 46 43 40 37 34 33 34 33 32 33 31 29 27 24 24 25 26
23 31 37 41 48 48 47 49 47 46 45 35 40 53 54 49 46 43 40 37 37 36 35 33 30 28 28 28 22 22 23 24
23 27 37 40 46 52 53 49 46 45 44 40 34 50 55 52 49 46 42 41 40 38 37 34 31 30 28 28 24 22 22 24
25 26 29 40 44 51 56 52 52 42 46 45 42 53 60 56 52 49 44 41 40 39 37 34 32 31 29 26 23 23 21 22
26 29 31 34 42 50 54 51 50 46 50 46 40 57 59 57 52 49 46 42 40 39 38 35 33 32 31 28 25 23 22 22
31 30 35 35 39 50 57 49 44 37 40 46 41 55 58 55 54 49 48 41 38 38 37 37 35 33 33 30 27 25 24 24
34 33 35 39 40 45 52 54 44 46 44 41 51 63 60 57 52 50 46 42 39 38 37 38 38 35 34 32 28 26 28 28
25 28 32 36 40 40 46 57 53 51 45 38 47 61 59 60 56 50 47 42 39 39 38 38 39 36 35 34 31 29 30 32
9 16 26 31 35 40 43 47 51 55 42 32 35 52 52 54 56 50 45 42 41 40 39 39 39 37 37 35 33 29 28 30
21 9 17 24 30 36 40 43 47 46 39 34 31 49 61 56 56 49 46 43 41 41 39 39 38 37 37 36 33 30 28 28
31 20 17 20 26 32 33 38 43 39 40 35 28 41 51 58 57 49 44 42 41 41 40 39 38 37 38 36 33 30 29 28
31 22 16 12 23 28 36 41 46 44 38 30 30 41 56 55 55 49 46 41 41 40 41 39 38 37 36 34 32 31 31 29
30 24 17 10 7 24 28 37 41 46 40 29 30 38 47 55 54 52 47 41 41 42 42 40 38 37 35 33 32 32 31 30
28 23 17 10 3 15 24 28 33 43 42 39 30 35 46 52 54 49 46 45 42 43 42 40 38 36 34 32 31 32 32 30
Wind_Direction
232 225 228 230 219 212 207 206 205 203 200 201 202 200 200 197 194 193 192 190 190 192 194 193 191 190 181 188 189 180 177 162
251 229 227 226 222 218 211 204 203 204 201 203 205 203 203 202 199 204 200 198 196 195 199 200 198 199 195 191 190 185 175 169
247 233 222 220 223 222 212 203 203 200 209 208 210 208 206 207 205 205 204 206 204 200 200 202 205 205 201 193 202 188 184 178
241 232 218 219 219 221 212 206 202 199 202 218 216 215 213 209 211 210 208 210 211 209 202 204 210 213 209 204 210 208 189 184
241 236 217 212 221 223 219 207 201 195 197 229 222 218 214 211 214 212 210 211 214 214 208 206 211 212 213 213 212 218 210 190
242 237 231 223 222 218 221 212 203 195 206 226 217 221 220 213 212 216 213 213 213 215 213 209 209 212 212 215 212 213 211 204
255 245 239 232 225 218 213 206 204 207 203 210 225 213 219 217 217 221 215 211 211 214 214 211 212 214 216 213 214 212 210 213
260 245 234 229 225 215 214 217 204 211 205 215 220 219 223 222 223 221 212 211 213 216 213 210 210 212 215 211 208 207 209 215
261 252 247 232 228 218 212 212 210 211 210 218 246 220 227 224 228 219 214 216 220 217 214 213 212 210 210 206 205 210 212 215
273 251 247 238 227 218 212 211 215 218 227 226 222 216 221 225 220 220 219 219 223 219 216 215 213 211 209 207 209 211 215 220
272 257 242 239 231 221 213 215 208 211 211 211 213 219 220 221 216 218 219 223 220 220 219 217 214 213 211 211 214 218 221 224
272 252 238 234 233 226 219 210 208 205 203 219 221 216 218 220 217 218 221 222 222 222 220 216 214 213 212 214 216 217 225 225
258 243 232 217 217 215 217 213 210 214 217 229 216 214 214 220 219 219 219 221 223 224 220 215 214 214 212 214 215 217 223 225
314 227 212 207 211 211 209 212 211 212 218 221 239 218 219 226 217 215 219 221 221 221 219 215 213 214 211 215 219 220 225 227
22 215 215 210 209 211 208 208 206 212 207 218 233 220 221 222 216 214 217 217 218 218 216 213 214 215 213 216 220 222 225 227
5 20 217 214 216 210 202 202 209 204 209 212 217 229 221 221 213 214 214 214 217 216 213 211 213 214 215 217 221 225 226 225
357 13 49 206 218 218 215 211 208 203 202 220 227 216 219 209 210 212 211 213 215 214 212 213 211 213 216 219 225 228 228 226
354 5 22 42 163 215 213 220 216 212 216 217 216 216 217 215 211 210 209 209 215 214 212 213 214 217 219 222 225 228 230 229
2 9 20 35 128 211 216 217 217 219 222 211 215 223 221 216 214 212 208 210 213 215 212 213 215 219 222 224 225 227 229 230
Height
1485 1487 1489 1496 1503 1507 1514 1521 1526 1532 1538 1544 1549 1553 1557 1560 1563 1566 1568 1572 1576 1580 1583 1586 1590 1592 1594 1597 1601 1604 1606 1607
1480 1484 1485 1489 1494 1502 1509 1516 1522 1529 1534 1540 1545 1548 1554 1558 1562 1566 1568 1570 1574 1578 1581 1585 1589 1591 1593 1596 1599 1602 1605 1606
1476 1479 1483 1484 1488 1494 1502 1510 1516 1523 1532 1538 1543 1549 1553 1558 1562 1564 1567 1569 1572 1575 1579 1583 1586 1589 1592 1594 1597 1599 1604 1605
1471 1473 1478 1482 1483 1487 1493 1501 1510 1516 1523 1537 1541 1547 1552 1554 1558 1562 1565 1568 1570 1573 1577 1581 1584 1587 1590 1592 1595 1598 1599 1603
1464 1467 1472 1475 1479 1483 1489 1496 1504 1512 1513 1532 1536 1538 1543 1548 1554 1558 1562 1565 1568 1571 1574 1578 1582 1586 1588 1591 1593 1596 1598 1600
1459 1461 1464 1470 1475 1478 1482 1491 1499 1505 1509 1515 1524 1534 1540 1546 1550 1555 1558 1562 1565 1568 1571 1574 1578 1582 1586 1588 1591 1593 1597 1599
1452 1455 1459 1462 1468 1474 1478 1485 1491 1498 1504 1507 1514 1522 1532 1538 1544 1549 1553 1558 1561 1564 1567 1571 1575 1579 1582 1585 1589 1591 1594 1597
1446 1447 1449 1454 1458 1466 1472 1479 1486 1492 1497 1502 1507 1517 1523 1531 1537 1543 1548 1553 1556 1558 1563 1567 1571 1576 1580 1583 1585 1588 1591 1594
1439 1440 1441 1445 1449 1455 1462 1468 1477 1485 1490 1495 1500 1504 1514 1524 1529 1536 1542 1548 1552 1555 1559 1563 1568 1572 1576 1580 1582 1585 1588 1591
1432 1433 1434 1436 1442 1447 1453 1460 1468 1476 1478 1484 1489 1495 1505 1514 1521 1530 1537 1543 1547 1550 1555 1559 1564 1568 1572 1575 1578 1581 1585 1588
1423 1424 1425 1428 1432 1440 1447 1453 1459 1466 1471 1478 1480 1488 1498 1507 1514 1523 1529 1537 1541 1545 1549 1555 1559 1563 1567 1570 1573 1578 1581 1584
1413 1413 1415 1419 1424 1430 1436 1447 1453 1459 1466 1472 1476 1479 1489 1498 1508 1515 1523 1530 1534 1539 1543 1548 1553 1557 1561 1565 1568 1572 1576 1579
1400 1402 1405 1412 1419 1425 1430 1438 1447 1454 1461 1467 1472 1472 1481 1491 1501 1509 1516 1523 1527 1532 1537 1542 1546 1551 1555 1560 1563 1566 1569 1573
1393 1396 1401 1409 1415 1420 1425 1429 1437 1445 1453 1462 1466 1467 1474 1484 1495 1503 1510 1515 1519 1525 1530 1535 1539 1544 1549 1554 1558 1561 1564 1568
1398 1400 1404 1409 1414 1418 1422 1428 1432 1439 1449 1454 1456 1460 1468 1477 1487 1495 1502 1507 1512 1517 1522 1528 1533 1538 1543 1548 1553 1556 1559 1562
1407 1402 1404 1408 1412 1417 1420 1425 1430 1436 1440 1442 1442 1452 1460 1470 1480 1488 1495 1500 1506 1511 1516 1521 1527 1532 1537 1542 1546 1550 1554 1557
1411 1405 1402 1406 1410 1414 1419 1422 1427 1434 1435 1438 1440 1441 1450 1459 1471 1481 1488 1494 1500 1505 1510 1515 1520 1525 1530 1536 1541 1545 1549 1551
1414 1411 1408 1405 1406 1412 1415 1420 1424 1427 1432 1434 1436 1438 1445 1455 1464 1474 1481 1487 1493 1499 1503 1508 1513 1519 1524 1530 1535 1540 1543 1545
1419 1414 1408 1406 1407 1409 1412 1416 1419 1423 1425 1430 1431 1435 1441 1449 1457 1466 1474 1480 1486 1492 1497 1502 1508 1513 1519 1524 1529 1533 1537 1540